Connexion

Connexion à votre compte

Identifiant
Mot de passe
Maintenir la connexion active sur ce site

METAR/TAF de Chambéry

[source: ADDS]
METAR / TAF
LFLB 020700Z AUTO VRB02KT CAVOK M02/M02 Q1032 NOSIG =
TAF LFLB 020200Z 0203/0303 36006KT 9999 BKN045 TEMPO 0203/0210 18005KT BECMG 0210/0212 SCT040 PROB40 TEMPO 0222/0303 2000 BR

SR / SS: 06:56 / 16:43 UTC (Lever/Coucher du soleil le 2023-02-02)

 

Webcam de l'Aéroclub - Parking Lima et SW (réactualisation : 5min)

Cliquer ici pour une animation sur les 3 dernières heures / Cliquer sur l'image pour l'agrandir dans une nouvelle fenêtre

 

Webcam de l'Aéroclub - Manche à air et WA (réactualisation : 5min)

Cliquer ici pour une animation sur les 3 dernières heures / Cliquer sur l'image pour l'agrandir dans une nouvelle fenêtre

 

 

Webcams Tierces :

 

Webcam Belvédère du Revard - 360-SW-WA-EY-NL / 4955ft

Webcam Décollage parapente Pragondran - WA-NL / 2970ft

Webcam Bourget du Lac - 360-WA-EY

Webcam port d'Aix les Bains - 360

Webcam Belvédère d'Ontex- Vers l'est - EY / 1985ft

Webcam Belvédère de la Chambotte - Vers l'Ouest - WA-NL / 2200ft

Webcam port de Chatillon - 360-NL

Webcam La Motte Servolex - Vers l'Est - Croix du Nivolet / 1065ft

Webcam Aérodrome de Challes - LFLE - Vers l'Est - Mont St Michel

JSN Boot template designed by JoomlaShine.com